Weather History for Pueblo, CO

Change the Weather History Date:

Monday, February 25, 2013

  Actual Average Record
Temperature  
Mean Temperature 26 °F 37 °F  
Max Temperature 42 °F 53 °F 80 °F (1986)
Min Temperature 10 °F 20 °F -7 °F (1960)
Degree Days  
Heating Degree Days 39 28  
Month to date heating degree days 809 788  
Since 1 July heating degree days 4128 4220  
Cooling Degree Days 0 0  
Month to date cooling degree days 0 0  
Year to date cooling degree days 0 0  
Moisture  
Dew Point 14 °F    
Average Humidity 60    
Maximum Humidity 92    
Minimum Humidity 28    
Precipitation  
Precipitation 0.00 in 0.02 in 0.32 in (1977)
Month to date precipitation 0.47 0.26  
Year to date precipitation 0.68 0.61  
Snow  
Snow 0.00 in 0.10 in 3.60 in (1977)
Month to date snowfall 5.1 3.4  
Since 1 July snowfall 14.5 21.4  
Snow Depth 1.00 in    
Sea Level Pressure  
Sea Level Pressure 30.05 in    
Wind  
Wind Speed 6 mph (North)    
Max Wind Speed 23 mph    
Max Gust Speed 25 mph    
Visibility 10 miles    
Events      
T = Trace of Precipitation, MM = Missing Value Source: NWS Daily Summary

Daily Weather History Graph

Daily Weather History Graph

Search for Another Location

Airport:

Trip Planner

Search our weather history database for the weather conditions in past years. The results will help you decide how hot, cold, wet, or windy it might be!

Date:

Astronomy

Feb. 25, 2013 Rise Set
Actual Time 6:35 AM MST 5:47 PM MST
Civil Twilight 6:08 AM MST 6:14 PM MST
Nautical Twilight 5:37 AM MST 6:44 PM MST
Astronomical Twilight 5:07 AM MST 7:15 PM MST
Moon 6:02 PM MST (2/25) 6:07 AM MST (2/25)
Length of Visible Light 12h 05m
Length of Day
11h 12m
Full, 100% of the Moon is Illuminated
Feb 25
Full
Feb 25
Full
Mar 4
Last Quarter
Mar 11
New
Mar 19
First Quarter

Hourly Weather History & Observations

Time (MST) Temp. Windchill Dew Point Humidity Pressure Visibility Wind Dir Wind Speed Gust Speed Precip Events Conditions
12:53 AM 21.9 °F 7.8 °F 14.0 °F 72% 30.13 in 10.0 mi North 17.3 mph - N/A   Clear
1:53 AM 23.0 °F 8.7 °F 15.1 °F 72% 30.14 in 10.0 mi NNE 18.4 mph - N/A   Clear
2:53 AM 21.0 °F 9.9 °F 12.9 °F 71% 30.12 in 10.0 mi North 10.4 mph - N/A   Clear
3:53 AM 19.9 °F 7.3 °F 12.0 °F 71% 30.10 in 10.0 mi North 12.7 mph - N/A   Clear
4:53 AM 18.0 °F 9.8 °F 10.0 °F 71% 30.13 in 10.0 mi West 5.8 mph - N/A   Clear
5:53 AM 14.0 °F 6.5 °F 9.0 °F 80% 30.13 in 10.0 mi WSW 4.6 mph - N/A   Clear
6:53 AM 10.9 °F - 9.0 °F 92% 30.18 in 9.0 mi Calm Calm - N/A   Clear
7:53 AM 16.0 °F - 10.0 °F 77% 30.21 in 8.0 mi Calm Calm - N/A   Clear
8:53 AM 21.0 °F 16.2 °F 15.1 °F 78% 30.18 in 9.0 mi WNW 3.5 mph - N/A   Clear
9:53 AM 27.0 °F 23.0 °F 17.1 °F 66% 30.16 in 10.0 mi West 3.5 mph - N/A   Clear
10:53 AM 30.2 °F 22.6 °F 17.6 °F 60% 30.04 in - NW 8.1 mph - N/A   Unknown
11:53 AM 33.1 °F - 14.0 °F 46% 30.08 in 10.0 mi Calm Calm - N/A   Clear
12:53 PM 35.1 °F 32.2 °F 16.0 °F 46% 30.02 in 10.0 mi Variable 3.5 mph - N/A   Clear
1:53 PM 37.9 °F - 14.0 °F 38% 29.98 in 10.0 mi Calm Calm - N/A   Clear
2:53 PM 39.9 °F 36.7 °F 16.0 °F 38% 29.95 in 10.0 mi Variable 4.6 mph - N/A   Clear
3:53 PM 41.0 °F 38.0 °F 12.9 °F 32% 29.94 in 10.0 mi East 4.6 mph - N/A   Clear
4:53 PM 41.0 °F 38.0 °F 10.9 °F 29% 29.94 in 10.0 mi ENE 4.6 mph - N/A   Clear
5:53 PM 34.0 °F 25.5 °F 14.0 °F 44% 29.99 in 10.0 mi East 11.5 mph - N/A   Clear
6:53 PM 28.9 °F 21.1 °F 15.1 °F 56% 30.02 in 10.0 mi East 8.1 mph - N/A   Clear
7:53 PM 24.1 °F 18.2 °F 15.1 °F 69% 30.03 in 10.0 mi ENE 4.6 mph - N/A   Clear
8:53 PM 23.0 °F - 16.0 °F 74% 30.01 in 10.0 mi Calm Calm - N/A   Clear
9:53 PM 19.9 °F - 14.0 °F 78% 29.98 in 10.0 mi Calm Calm - N/A   Clear
10:53 PM 19.0 °F 12.3 °F 14.0 °F 81% 29.95 in 10.0 mi WNW 4.6 mph - N/A   Clear
11:53 PM 19.0 °F 10.0 °F 12.9 °F 77% 29.93 in 10.0 mi NNW 6.9 mph - N/A   Clear